Погода в Чернишня

Россия / Калужская область     55°10′39″N   37°00′11″E
темп.,
°C
ветер,
м/с
пор.,
м/с
влажн.,
%
обл.,
%
осадки,
мм/ч
давл.,
гПа
погр.,
м
13 апреля, вт
вт1300:00+9вюв3139344 0.0 1026380
03:00+9юв3119272 0.0 1025272
06:00+8юв3118799 0.0 1025209
09:00+13ююв3866100 0.0 1025305
12:00+18ююв4846100 0.0 1024753
15:00+20ююв4837100 0.0 10232095
18:00+17ююв38465 0.0 1022271
21:00+12юв313648 0.0 1022276
14 апреля, ср
ср1400:00+10юв3106520 0.0 1021193
03:00+9ююв313695 0.0 1021291
06:00+8ююв313815 0.0 1020300
09:00+13ююв397068 0.0 1020402
12:00+17ююв4657100 0.0 10191107
15:00+18ююв4740100 0.0 10181610
18:00+15юв2549100 0.0 1017137
21:00+11юв2259100 0.0 101825
15 апреля, чт
чт1500:00+9вюв2265100 0.0 101724
03:00+8юв226890 0.0 101713
06:00+8в226799 0.0 101622
09:00+12вюв3659100 0.0 1017252
12:00+15юв3550100 0.0 1016900
15:00+16юв1250100 0.0 10161273
18:00+15всв3654100 0.0 1016284
21:00+11св2367100 0.0 101645
16 апреля, пт
пт1600:00+9св4117843 0.0 1016337
03:00+8св4128979 0.0 1017406
06:00+7св5129090 0.1 1018464
09:00+10всв6107786 0.4 1018583
12:00+14всв5862100 0.1 1018930
15:00+13всв6973100 0.3 1019747
18:00+11всв51181100 0.8 1019752
21:00+9всв61485100 2.1 1020689
17 апреля, сб
сб1700:00+8всв61389100 2.5 1021523
03:00+7св61289100 4.2 1021370
06:00+6всв5119078 0.0 1022381
09:00+8всв5108080 0.0 1023520
12:00+13всв696613 0.0 1023809
15:00+15всв69565 0.0 10231241
18:00+13всв6105935 0.0 10241114
21:00+9всв5136024 0.0 1026616